Location: ????????
(55.6189°N, 38.3031°E)
Time: 16:21:58
(UTC+00:00)

Cosmos 2228 Rocket - Pass Details

Date: 15 November 2019
Orbit: 619 x 651 km, 82.5° (Epoch: 09 December)

Event Time Altitude Azimuth Distance (km) Brightness Sun altitude
Rises 03:14:10 0° 348° (NNW) 2,977 6.3 -14.7°
Reaches altitude 10° 03:16:26 10° 351° (N) 2,066 5.5 -14.4°
Maximum altitude 03:21:02 74° 77° (ENE) 685 3.4 -13.7°
Drops below altitude 10° 03:25:37 10° 162° (SSE) 2,057 6.2 -13.1°
Sets 03:27:52 0° 164° (SSE) 2,964 7.0 -12.8°
